Kezdőlap
METAR-TAF:

METAR-TAF

Repülőterek :

Baraboo Wisconsin Dells Airport

Baraboo-Wisconsin Dells, Wisconsin, Amerikai Egyesült Államok

földrajzi szélesség: 43-31-19N, földrajzi hosszúság: 089-46-15W, magasság: 298 m

Jelenlegi meteorológiai megfigyelések

A jelentés 15 perccel ezelõtt készült, 17:55 UTC
Nyugati szél 3 kt
Hőmérséklet 7°C
Páratartalom 57%
Légköri nyomás 1021 hPa
Látótávolság: 16.1 km
Derült ég

METAR: KDLL 081755Z AUTO 28003KT 10SM CLR 07/M01 A3016 RMK AO2 T00721012 10073 21032

Idő: 12:10 (18:10 UTC)


TAF: hiányzik

Meteorológiai megfigyelések és előrejelzések több, mint 4000 repülőtéren (METAR és TAF jelentéseket).

A térképen piros és sárga pontok jelzik az elérhető meteorológiai állomásokat.

Mozgassa az egeret a pont fölött, hogy megjelenjen az állomás neve.

Azután kattintson az időjárási megfigyelések és előrejelzések megtekintéséhez.

A térkép megváltoztatása: kattintson a fekete keresztel jelölt zöld gombra ráközelítéshez, a vonallal jelölt zöld gombra távolításhoz, vagy a zöld nyilakra a szomszédos térképek eléréséhez.


METAR-TAF: